[[{"header":{"parameterUnit":"m.s-1","parameterCategory":2,"la1":30.2991,"la2":30.254,"lo1":-89.0895,"lo2":-89.0444,"dy":0.0017,"dx":0.0017,"nx":28,"ny":28,"refTime":"2023-09-20T09:00:00:Z","depth":"0","parameterNumber":2,"parameterNumberName":"U-component_of_CURRENTS"},"data":[0,0,0,0,0,0,0,0,0,0,0,0,0,0,0,0,0,0,0,0,0,0,0,0,0,0,0,0,0,0,0,0,0,0,0,0,0,0,0,0,0,0,0,0,0,0,0,0,0,0,0,0,0,0,0,0,0,0,0.219,0.219,0,0.2216,0.2217,0.2217,0.2201,0.22,0.22,0.2199,0.2207,0.2208,0.2208,0,0,0,0,0,0,0,0,0,0,0,0,0,0.2159,0.2159,0.219,0.219,0.2191,0.2216,0.2217,0.2217,0.2201,0.22,0.22,0.2199,0.2207,0.2208,0.2208,0,0,0,0,0,0,0,0,0,0,0,0,0,0.2176,0.2159,0.219,0.2187,0.2187,0.2216,0.2217,0.2217,0.2201,0.22,0.2199,0.2199,0.2206,0.2207,0.2209,0.2234,0,0,0.2212,0.2213,0,0,0,0,0,0,0,0,0.2175,0.2177,0.2187,0.2188,0.2188,0.2206,0.2209,0.2222,0.2201,0.2194,0.2199,0.2198,0.2207,0.2208,0.2213,0.2235,0.2235,0.2212,0.2213,0.2213,0.2214,0,0,0,0,0,0,0,0.2174,0.2176,0.2199,0.2188,0.2188,0.2196,0.2197,0.2211,0.2204,0.2195,0.2194,0.22,0.2206,0.2212,0.2213,0.2235,0.2212,0.2213,0.2214,0.2214,0.229,0.2291,0,0,0,0,0,0,0.2173,0.2175,0.2198,0.22,0.2181,0.2198,0.2199,0.22,0.2204,0.2204,0.2201,0.2199,0.221,0.2211,0.2213,0.2261,0.2213,0.2215,0.2215,0.2289,0.229,0.2292,0,0,0,0,0,0,0.2172,0.2175,0.2197,0.2189,0.2193,0.2199,0.2201,0.2201,0.2209,0.2209,0.2208,0.2209,0.2209,0.2211,0.2236,0.226,0.2215,0.2216,0.2287,0.2289,0.2291,0.2346,0,0,0,0,0,0,0.2171,0.2174,0.2181,0.2189,0.2193,0.2226,0.2202,0.2202,0.2215,0.2213,0.2216,0.2216,0.2209,0.2234,0.2237,0.2261,0.2217,0.2285,0.2288,0.229,0.2343,0.235,0.2356,0,0,0,0,0,0.217,0.2184,0.2181,0.2184,0.22,0.2227,0.2231,0.223,0.2216,0.2231,0.2231,0.2216,0.2251,0.2236,0.2239,0.2264,0.2284,0.2287,0.229,0.234,0.2348,0.2356,0,0,0,0,0,0,0.2176,0.2184,0.218,0.2196,0.2215,0.2225,0.2242,0.2237,0.225,0.2247,0.2236,0.2237,0.2269,0.2261,0.2244,0.2293,0.2264,0.2268,0.2301,0.2309,0.2316,0.2324,0.2218,0,0,0,0,0,0.2181,0.2191,0.2203,0.2219,0.223,0.2236,0.2248,0.2249,0.2259,0.2263,0.2262,0.2267,0.2285,0.2291,0.2304,0.2332,0.2349,0.2349,0.2356,0.2361,0.2371,0.2422,0.2435,0.2301,0.2301,0.2301,0,0,0.2188,0.2195,0.2201,0.2222,0.2235,0.2258,0.2241,0.2267,0.2283,0.2263,0.2287,0.2295,0.2299,0.2332,0.2344,0.2326,0.2411,0.2365,0.237,0.2376,0.2427,0.244,0.2452,0.2303,0.2303,0.2302,0,0,0.221,0.2216,0.2232,0.225,0.2274,0.2283,0.2292,0.2307,0.2313,0.234,0.2333,0.2356,0.2372,0.2385,0.2392,0.2445,0.2449,0.2446,0.2483,0.2533,0.2544,0.2555,0.2607,0.2621,0.2444,0.2444,0.2444,0,0.222,0.2235,0.2245,0.2268,0.2284,0.2294,0.2319,0.2335,0.2354,0.237,0.2353,0.2401,0.2399,0.2449,0.2463,0.2461,0.2491,0.2451,0.2542,0.2553,0.2562,0.2613,0.2628,0.2447,0.2447,0.2446,0.2446,0,0.2252,0.2267,0.2284,0.2309,0.2333,0.236,0.2381,0.2406,0.241,0.2421,0.247,0.2478,0.2507,0.251,0.25,0.257,0.2572,0.255,0.2523,0.2579,0.2629,0.2644,0.2451,0.245,0.2449,0.2449,0,0,0.2259,0.2296,0.23,0.2315,0.2355,0.2375,0.2419,0.2459,0.249,0.2512,0.2556,0.2584,0.2593,0.2602,0.2602,0.2636,0.2727,0.2623,0.2624,0.2676,0.2852,0.2823,0.2836,0.2725,0.2728,0.273,0.2864,0,0.2279,0.2316,0.2334,0.2375,0.2397,0.2427,0.2465,0.2504,0.2535,0.2584,0.2609,0.2649,0.2627,0.2648,0.2686,0.2717,0.2768,0.2693,0.2788,0.2791,0.2759,0.2852,0.2665,0.2766,0.2879,0.2881,0.2883,0,0.2294,0.2318,0.2352,0.2401,0.2415,0.2442,0.2508,0.2545,0.2618,0.2646,0.2701,0.2723,0.2791,0.2754,0.2859,0.2817,0.2847,0.2864,0.2869,0.2832,0.2789,0.2725,0.2789,0.271,0.2906,0.2904,0.2902,0,0.2275,0.2328,0.2351,0.2367,0.2427,0.2452,0.2489,0.2558,0.2605,0.2689,0.2739,0.2813,0.2866,0.2915,0.2964,0.292,0.3081,0.3019,0.3029,0.3027,0.288,0.2861,0.2875,0.3106,0.3106,0.3106,0.3105,0,0.2275,0.2295,0.2342,0.2353,0.2393,0.2441,0.2498,0.2546,0.264,0.2707,0.2768,0.2848,0.291,0.3003,0.3021,0.3094,0.3137,0.3066,0.307,0.2895,0.2877,0.2809,0.2776,0.3111,0.311,0.3109,0.3108,0,0.224,0.2271,0.23,0.236,0.2377,0.2403,0.2492,0.2546,0.2634,0.2732,0.2766,0.2905,0.3026,0.3098,0.3198,0.3174,0.3136,0.3244,0.3042,0.3018,0.2901,0.2877,0.283,0.2749,0.3257,0.3257,0.3257,0,0.2223,0.2234,0.2286,0.2307,0.233,0.2382,0.2425,0.2521,0.2586,0.2765,0.2816,0.2978,0.3073,0.323,0.3224,0.3277,0.3181,0.3127,0.2995,0.2902,0.2879,0.2774,0.2701,0.283,0.2826,0.2824,0.2821,0,0.2198,0.2213,0.2238,0.228,0.2316,0.2358,0.2429,0.2478,0.2607,0.2699,0.2843,0.2935,0.3092,0.3068,0.3147,0.3142,0.2944,0.3072,0.3019,0.2597,0.2439,0.2359,0.2748,0.2797,0.28,0.2801,0.2803,0.2804,0.2177,0.2185,0.2224,0.2254,0.2297,0.2328,0.2332,0.2424,0.2505,0.2602,0.2761,0.2822,0.2879,0.2954,0.2949,0.2799,0.2823,0.2656,0.2656,0.2576,0.2424,0.2778,0.2801,0.2803,0.2805,0.2807,0.2809,0,0.2153,0.2172,0.2206,0.2232,0.2246,0.2279,0.2331,0.2317,0.2362,0.2466,0.255,0.2574,0.2547,0.2577,0.2489,0.2375,0.2243,0.2308,0.2089,0.2055,0.2401,0.2305,0.2168,0.2168,0.2168,0.2168,0.2168,0.2168,0.2147,0.2155,0.2166,0.2168,0.2182,0.2147,0.2141,0.213,0.2164,0.2163,0.2157,0.2221,0.2314,0.2279,0.2142,0.2081,0.1917,0.1805,0.1875,0.2084,0.2115,0.2144,0.2046,0.1856,0.1855,0.1374,0.1371,0.1368]},{"header":{"parameterUnit":"m.s-1","parameterCategory":2,"la1":30.2991,"la2":30.254,"lo1":-89.0895,"lo2":-89.0444,"dy":0.0017,"dx":0.0017,"nx":28,"ny":28,"refTime":"2023-09-20T09:00:00:Z","depth":"0","parameterNumber":3,"parameterNumberName":"V-component_of_CURRENTS"},"data":[0,0,0,0,0,0,0,0,0,0,0,0,0,0,0,0,0,0,0,0,0,0,0,0,0,0,0,0,0,0,0,0,0,0,0,0,0,0,0,0,0,0,0,0,0,0,0,0,0,0,0,0,0,0,0,0,0,0,-0.0084,-0.0084,0,-0.0138,-0.0138,-0.0139,-0.0164,-0.0164,-0.0164,-0.0164,-0.0211,-0.0212,-0.0214,0,0,0,0,0,0,0,0,0,0,0,0,0,-0.004,-0.0041,-0.0084,-0.0084,-0.0085,-0.0138,-0.0138,-0.0139,-0.0164,-0.0164,-0.0164,-0.0164,-0.0211,-0.0212,-0.0214,0,0,0,0,0,0,0,0,0,0,0,0,0,-0.0073,-0.0041,-0.0084,-0.0103,-0.0106,-0.0137,-0.0138,-0.0139,-0.0164,-0.0164,-0.0164,-0.0164,-0.021,-0.0212,-0.0214,-0.0229,0,0,-0.022,-0.0221,0,0,0,0,0,0,0,0,-0.0071,-0.0075,-0.01,-0.0102,-0.0105,-0.0144,-0.014,-0.0169,-0.0164,-0.0143,-0.0164,-0.0164,-0.0188,-0.0192,-0.0203,-0.0231,-0.0233,-0.022,-0.0222,-0.0222,-0.0223,0,0,0,0,0,0,0,-0.0069,-0.0073,-0.0106,-0.0101,-0.0104,-0.0122,-0.0127,-0.0146,-0.0165,-0.0144,-0.0146,-0.0151,-0.0189,-0.0201,-0.0204,-0.0234,-0.022,-0.0222,-0.0223,-0.0224,-0.0272,-0.0272,0,0,0,0,0,0,-0.006,-0.0071,-0.0104,-0.0107,-0.0087,-0.0123,-0.0128,-0.0132,-0.0165,-0.017,-0.0151,-0.0152,-0.0197,-0.0202,-0.0206,-0.0215,-0.0222,-0.0224,-0.0226,-0.0271,-0.0272,-0.0272,0,0,0,0,0,0,-0.0058,-0.0062,-0.0102,-0.009,-0.0096,-0.0124,-0.0128,-0.0133,-0.014,-0.0171,-0.0176,-0.0153,-0.0198,-0.0203,-0.0219,-0.0217,-0.0225,-0.0227,-0.0271,-0.0271,-0.0272,-0.024,0,0,0,0,0,0,-0.0057,-0.0061,-0.0062,-0.0089,-0.0096,-0.0114,-0.0128,-0.0134,-0.0144,-0.0145,-0.0174,-0.0179,-0.0198,-0.0216,-0.0221,-0.022,-0.0229,-0.0271,-0.0271,-0.0272,-0.0241,-0.0239,-0.0238,0,0,0,0,0,-0.0055,-0.0053,-0.0061,-0.0065,-0.0096,-0.0114,-0.0119,-0.0139,-0.0144,-0.0145,-0.0165,-0.0177,-0.022,-0.0218,-0.0224,-0.0223,-0.0271,-0.0271,-0.0272,-0.0242,-0.024,-0.0238,0,0,0,0,0,0,-0.0035,-0.0056,-0.0066,-0.0071,-0.0088,-0.0118,-0.0121,-0.0135,-0.0153,-0.0152,-0.0179,-0.0185,-0.0201,-0.0216,-0.0212,-0.0238,-0.0248,-0.0249,-0.0223,-0.0221,-0.0219,-0.0199,-0.023,0,0,0,0,0,-0.0031,-0.0034,-0.0058,-0.0062,-0.0068,-0.0093,-0.0103,-0.0116,-0.0136,-0.0143,-0.0164,-0.0186,-0.0207,-0.0216,-0.0238,-0.025,-0.0256,-0.0253,-0.0252,-0.025,-0.0238,-0.026,-0.0259,-0.0272,-0.0272,-0.0272,0,0,-0.0025,-0.0036,-0.0039,-0.0058,-0.0072,-0.0075,-0.0099,-0.0108,-0.011,-0.0146,-0.0152,-0.0181,-0.021,-0.0226,-0.0233,-0.0236,-0.0247,-0.025,-0.0248,-0.0237,-0.026,-0.0259,-0.0257,-0.0272,-0.0272,-0.0272,0,0,-0.001,-0.0023,-0.0018,-0.0029,-0.0046,-0.006,-0.0059,-0.0085,-0.0095,-0.011,-0.0136,-0.0162,-0.019,-0.0213,-0.0228,-0.0228,-0.0239,-0.0235,-0.0207,-0.0228,-0.0227,-0.0226,-0.0218,-0.0217,-0.0231,-0.0231,-0.0231,0,-0.0001,0.0003,-0.002,-0.0016,-0.0019,-0.0048,-0.004,-0.0056,-0.0084,-0.0088,-0.0105,-0.0156,-0.0185,-0.0204,-0.0206,-0.0224,-0.0225,-0.0213,-0.0225,-0.0225,-0.0224,-0.0216,-0.0215,-0.023,-0.023,-0.023,-0.023,0,0.002,0.0023,0.0026,0.0024,0.0016,0.0018,-0.0004,-0.001,-0.0027,-0.0047,-0.0072,-0.012,-0.0145,-0.0166,-0.0186,-0.0198,-0.0195,-0.0222,-0.0228,-0.0221,-0.0213,-0.0212,-0.0228,-0.0228,-0.0228,-0.0229,0,0,0.0047,0.0043,0.0046,0.0056,0.004,0.004,0.004,0.0032,0.0043,-0.0004,0.0001,-0.006,-0.0087,-0.0105,-0.0142,-0.0166,-0.0169,-0.0185,-0.0187,-0.017,-0.0189,-0.0169,-0.0166,-0.0198,-0.0198,-0.0198,-0.0179,0,0.0074,0.0097,0.0084,0.0107,0.0119,0.0096,0.0102,0.0089,0.0073,0.007,0.001,-0.0006,-0.0063,-0.0074,-0.0108,-0.0147,-0.0168,-0.0169,-0.0204,-0.0204,-0.0182,-0.0165,-0.0147,-0.0128,-0.0178,-0.0178,-0.0178,0,0.0106,0.0118,0.0148,0.016,0.0164,0.0173,0.0187,0.0187,0.0169,0.0155,0.0121,0.0078,0.004,-0.0015,-0.008,-0.0075,-0.0125,-0.0166,-0.0167,-0.0157,-0.0183,-0.0147,-0.0125,-0.0246,-0.0177,-0.0177,-0.0177,0,0.015,0.0165,0.0196,0.0199,0.0205,0.022,0.0224,0.0217,0.0236,0.0214,0.0232,0.0159,0.0148,0.0063,-0.0015,-0.0047,-0.0074,-0.0133,-0.0163,-0.0162,-0.0156,-0.0154,-0.025,-0.0185,-0.0185,-0.0185,-0.0185,0,0.0189,0.0214,0.0223,0.0242,0.0285,0.0269,0.0313,0.0308,0.0319,0.0368,0.0284,0.0319,0.0167,0.0132,0.0031,-0.0036,-0.0038,-0.0143,-0.0156,-0.0143,-0.014,-0.0254,-0.0326,-0.0185,-0.0185,-0.0185,-0.0185,0,0.0234,0.0238,0.0277,0.0297,0.0309,0.0342,0.038,0.0416,0.0418,0.0486,0.0487,0.0449,0.0416,0.0281,0.0166,0.0049,-0.0098,-0.007,-0.0025,-0.0034,-0.0201,-0.027,-0.0351,-0.0405,-0.0111,-0.011,-0.011,0,0.0257,0.0284,0.0326,0.036,0.0373,0.0418,0.0457,0.0466,0.0519,0.059,0.0642,0.0621,0.065,0.0495,0.0282,0.0118,-0.0029,-0.0007,-0.0087,-0.0191,-0.028,-0.0333,-0.0377,-0.0062,-0.0061,-0.0061,-0.006,0,0.0308,0.0325,0.0361,0.043,0.048,0.0538,0.0601,0.066,0.0705,0.0786,0.0907,0.0939,0.08,0.0638,0.0382,0.0253,-0.0088,0.0002,-0.0131,-0.0261,-0.0301,-0.0363,-0.0076,-0.0054,-0.0054,-0.0055,-0.0055,-0.0055,0.0352,0.0388,0.0441,0.0508,0.0572,0.0666,0.0729,0.0826,0.095,0.1093,0.1114,0.1192,0.0917,0.0585,0.0393,0.0003,-0.0023,-0.0151,-0.0225,-0.0268,-0.033,-0.0007,0.0008,0.0008,0.0008,0.0008,0.0008,0,0.0407,0.0451,0.0516,0.0604,0.0688,0.0706,0.0834,0.0918,0.1095,0.1235,0.1354,0.1263,0.0949,0.0586,0.0067,-0.0201,-0.0308,-0.035,-0.0446,-0.0483,-0.0214,-0.0224,-0.0228,-0.0228,-0.0227,-0.0227,-0.0227,-0.0227,0.0441,0.0512,0.0544,0.0691,0.0757,0.0873,0.0951,0.1098,0.1215,0.1393,0.1438,0.1453,0.1157,0.0281,-0.0325,-0.0457,-0.065,-0.0672,-0.0782,-0.0631,-0.0619,-0.0608,-0.0636,-0.0726,-0.0726,-0.1019,-0.1022,-0.1024]}],[{"header":{"parameterUnit":"m.s-1","parameterCategory":2,"la1":30.2991,"la2":30.254,"lo1":-89.0895,"lo2":-89.0444,"dy":0.0017,"dx":0.0017,"nx":28,"ny":28,"refTime":"2023-09-20T09:00:00:Z","depth":"2","parameterNumber":2,"parameterNumberName":"U-component_of_CURRENTS"},"data":[0,0,0,0,0,0,0,0,0,0,0,0,0,0,0,0,0,0,0,0,0,0,0,0,0,0,0,0,0,0,0,0,0,0,0,0,0,0,0,0,0,0,0,0,0,0,0,0,0,0,0,0,0,0,0,0,0,0,0.1993,0.1993,0,0.202,0.202,0.202,0.202,0.202,0.202,0.202,0.2035,0.2035,0.2036,0,0,0,0,0,0,0,0,0,0,0,0,0,0.1968,0.1968,0.1993,0.1993,0.1994,0.202,0.202,0.202,0.202,0.202,0.202,0.202,0.2034,0.2035,0.2036,0,0,0,0,0,0,0,0,0,0,0,0,0,0.1984,0.1968,0.1993,0.1998,0.1999,0.202,0.202,0.202,0.202,0.202,0.202,0.2019,0.2034,0.2035,0.2036,0.2048,0,0,0.2039,0.2039,0,0,0,0,0,0,0,0,0.1983,0.1985,0.1997,0.1997,0.1998,0.2017,0.2017,0.203,0.2021,0.2011,0.202,0.2019,0.2029,0.203,0.2034,0.2049,0.205,0.2039,0.2039,0.204,0.204,0,0,0,0,0,0,0,0.1982,0.1984,0.2002,0.1997,0.1998,0.2008,0.2009,0.2019,0.202,0.2012,0.2012,0.2017,0.2029,0.2033,0.2035,0.205,0.2039,0.204,0.204,0.204,0.2121,0.2123,0,0,0,0,0,0,0.198,0.1983,0.2001,0.2003,0.1991,0.2009,0.201,0.2011,0.202,0.2022,0.2017,0.2017,0.2032,0.2034,0.2035,0.2084,0.204,0.2041,0.2041,0.2119,0.2121,0.2123,0,0,0,0,0,0,0.1979,0.1981,0.2,0.1995,0.1998,0.2009,0.201,0.2011,0.2026,0.2025,0.2026,0.2031,0.2032,0.2034,0.2057,0.2083,0.2041,0.2042,0.2118,0.212,0.2122,0.216,0,0,0,0,0,0,0.1978,0.1981,0.1986,0.1994,0.1998,0.2023,0.201,0.2012,0.2029,0.2029,0.2037,0.2038,0.2032,0.2056,0.2058,0.2084,0.2042,0.2116,0.2119,0.2122,0.2157,0.2164,0.2169,0,0,0,0,0,0.1977,0.1989,0.1986,0.1989,0.2003,0.2024,0.2027,0.2033,0.203,0.2043,0.2049,0.2038,0.2077,0.2058,0.206,0.2086,0.2114,0.2118,0.2121,0.2154,0.2162,0.2169,0,0,0,0,0,0,0.1984,0.1991,0.1987,0.2001,0.2015,0.2025,0.2041,0.2042,0.2057,0.2058,0.2054,0.2055,0.2088,0.2085,0.2064,0.2121,0.2096,0.21,0.212,0.2128,0.2134,0.2135,0.2043,0,0,0,0,0,0.1987,0.1997,0.2005,0.2018,0.2026,0.2034,0.2046,0.2048,0.206,0.2067,0.2072,0.2084,0.2104,0.2113,0.2127,0.2154,0.2163,0.2175,0.2182,0.2187,0.2191,0.2247,0.2259,0.2135,0.2135,0.2135,0,0,0.1991,0.1999,0.2003,0.202,0.2031,0.205,0.2041,0.2062,0.2078,0.2066,0.2094,0.2106,0.2117,0.2149,0.2164,0.2149,0.2224,0.2191,0.2195,0.2197,0.2252,0.2264,0.2275,0.2137,0.2137,0.2136,0,0,0.2006,0.2014,0.2025,0.204,0.206,0.207,0.2079,0.2095,0.2103,0.2131,0.213,0.2155,0.2184,0.2194,0.2204,0.2254,0.2256,0.2267,0.2296,0.2351,0.2361,0.2371,0.2381,0.2391,0.2268,0.2268,0.2268,0,0.2012,0.2024,0.2035,0.2052,0.2065,0.2082,0.2097,0.2116,0.2137,0.2152,0.2147,0.2207,0.2205,0.2252,0.2265,0.2267,0.2291,0.2263,0.2359,0.2368,0.2377,0.2386,0.2397,0.227,0.227,0.227,0.227,0,0.203,0.2046,0.206,0.2084,0.2101,0.2123,0.2143,0.2167,0.2183,0.2202,0.2254,0.2263,0.2304,0.2307,0.2298,0.2365,0.2357,0.2361,0.2337,0.2392,0.2397,0.2408,0.2274,0.2273,0.2272,0.2272,0,0,0.2026,0.2063,0.2067,0.2081,0.2116,0.2133,0.2169,0.2208,0.2247,0.2275,0.2323,0.2353,0.2374,0.2387,0.239,0.2422,0.2485,0.242,0.2422,0.2424,0.2591,0.2537,0.2542,0.252,0.2523,0.2525,0.2563,0,0.2037,0.2064,0.2084,0.2121,0.2134,0.2165,0.2206,0.2244,0.2283,0.234,0.2365,0.2421,0.2404,0.2434,0.2468,0.2488,0.2519,0.2473,0.2543,0.2544,0.2485,0.2555,0.2341,0.2355,0.2573,0.2574,0.2576,0,0.2041,0.206,0.2085,0.2135,0.2148,0.2181,0.2247,0.2288,0.2368,0.2404,0.2467,0.2498,0.2553,0.2532,0.2606,0.2587,0.2595,0.2599,0.2601,0.2545,0.251,0.234,0.2365,0.2593,0.2591,0.259,0.2589,0,0.2015,0.2061,0.208,0.2094,0.2157,0.2185,0.2231,0.2307,0.2358,0.2456,0.2508,0.2583,0.263,0.267,0.2692,0.2663,0.2767,0.2726,0.2679,0.2673,0.25,0.2476,0.2784,0.2784,0.2784,0.2784,0.2784,0,0.2009,0.2028,0.2074,0.2086,0.2134,0.2181,0.2255,0.2313,0.2411,0.2484,0.2551,0.2614,0.2675,0.2738,0.2737,0.2754,0.2816,0.2697,0.2696,0.2505,0.2482,0.2696,0.2685,0.2785,0.2785,0.2785,0.2784,0,0.1973,0.2004,0.2032,0.2095,0.2121,0.2156,0.2262,0.2313,0.2421,0.2515,0.2554,0.2662,0.2735,0.2785,0.2846,0.2807,0.2826,0.2817,0.257,0.2539,0.2669,0.266,0.2741,0.2739,0.2738,0.2737,0.2737,0,0.1955,0.1964,0.2024,0.2049,0.2081,0.2146,0.219,0.2302,0.2361,0.2534,0.2568,0.2685,0.2722,0.2795,0.2778,0.2777,0.2833,0.2566,0.2462,0.2682,0.2673,0.2665,0.2658,0.2234,0.2229,0.2225,0.2222,0,0.1924,0.1947,0.1973,0.2013,0.2054,0.2106,0.2182,0.2222,0.236,0.2438,0.2531,0.2575,0.2652,0.2552,0.2584,0.2551,0.2546,0.2484,0.2814,0.2285,0.221,0.2199,0.2207,0.2187,0.219,0.2193,0.2195,0.2196,0.1904,0.1909,0.1941,0.1978,0.2028,0.2056,0.2048,0.2123,0.219,0.2257,0.2377,0.2365,0.2387,0.2303,0.2245,0.221,0.2368,0.2235,0.2245,0.2259,0.2201,0.213,0.2078,0.208,0.2083,0.2085,0.2087,0,0.1858,0.1884,0.1907,0.1932,0.1942,0.1997,0.2032,0.1987,0.199,0.2072,0.21,0.194,0.1878,0.1924,0.1811,0.1802,0.1759,0.1722,0.1642,0.168,0.1712,0.1624,0.1348,0.1346,0.1343,0.1341,0,0,0.184,0.1831,0.1834,0.1837,0.1862,0.1819,0.1805,0.1748,0.176,0.1704,0.1688,0.1779,0.1867,0.1581,0.1544,0.1429,0.1537,0.137,0.1968,0.1913,0.1942,0.2022,0.1931,0,0,0,0,0]},{"header":{"parameterUnit":"m.s-1","parameterCategory":2,"la1":30.2991,"la2":30.254,"lo1":-89.0895,"lo2":-89.0444,"dy":0.0017,"dx":0.0017,"nx":28,"ny":28,"refTime":"2023-09-20T09:00:00:Z","depth":"2","parameterNumber":3,"parameterNumberName":"V-component_of_CURRENTS"},"data":[0,0,0,0,0,0,0,0,0,0,0,0,0,0,0,0,0,0,0,0,0,0,0,0,0,0,0,0,0,0,0,0,0,0,0,0,0,0,0,0,0,0,0,0,0,0,0,0,0,0,0,0,0,0,0,0,0,0,0.0067,0.0067,0,0.0031,0.0031,0.003,0.0001,0.0001,0.0,0.0,-0.0037,-0.0037,-0.0038,0,0,0,0,0,0,0,0,0,0,0,0,0,0.0085,0.0085,0.0068,0.0067,0.0067,0.0031,0.0031,0.003,0.0001,0.0001,0.0,0.0,-0.0036,-0.0037,-0.0038,0,0,0,0,0,0,0,0,0,0,0,0,0,0.0065,0.0085,0.0068,0.0048,0.0046,0.0031,0.0031,0.003,0.0001,0.0001,0.0,-0.0,-0.0036,-0.0037,-0.0038,-0.0038,0,0,-0.0042,-0.0042,0,0,0,0,0,0,0,0,0.0066,0.0065,0.0052,0.005,0.0047,0.0021,0.0023,0.0007,0.0001,0.0018,0.0,-0.0,-0.0017,-0.002,-0.0026,-0.0039,-0.0041,-0.0042,-0.0042,-0.0043,-0.0043,0,0,0,0,0,0,0,0.0068,0.0066,0.0053,0.0051,0.0049,0.0032,0.0029,0.002,0.0003,0.0016,0.0014,0.0011,-0.0018,-0.0025,-0.0027,-0.0041,-0.0042,-0.0043,-0.0043,-0.0044,-0.0055,-0.0055,0,0,0,0,0,0,0.0075,0.0067,0.0054,0.0052,0.0057,0.0032,0.0029,0.0029,0.0003,-0.0002,0.0011,0.001,-0.0023,-0.0026,-0.0029,-0.0022,-0.0043,-0.0044,-0.0045,-0.0055,-0.0055,-0.0055,0,0,0,0,0,0,0.0076,0.0074,0.0055,0.0059,0.0055,0.0033,0.0033,0.0029,0.0022,-0.0001,-0.0005,0.0009,-0.0023,-0.0027,-0.003,-0.0024,-0.0044,-0.0045,-0.0056,-0.0055,-0.0055,-0.0014,0,0,0,0,0,0,0.0076,0.0075,0.0078,0.0059,0.0055,0.0053,0.0033,0.0028,0.002,0.0018,-0.0004,-0.0008,-0.0024,-0.0028,-0.0031,-0.0026,-0.0046,-0.0056,-0.0056,-0.0055,-0.0016,-0.0012,-0.0009,0,0,0,0,0,0.0077,0.0085,0.0078,0.0076,0.006,0.0054,0.005,0.0032,0.0021,0.0023,0.0009,-0.0008,-0.0026,-0.0029,-0.0032,-0.0027,-0.0057,-0.0056,-0.0055,-0.0018,-0.0013,-0.0009,0,0,0,0,0,0,0.0093,0.0082,0.0074,0.0078,0.0069,0.0049,0.0049,0.0036,0.0026,0.0024,-0.0,-0.0004,-0.0007,-0.0021,-0.0023,-0.0029,-0.0045,-0.0045,-0.0016,-0.0012,-0.0008,0.0006,-0.0047,0,0,0,0,0,0.0098,0.0102,0.0088,0.0092,0.0089,0.0069,0.0064,0.0054,0.0042,0.0036,0.002,0.0004,-0.0006,-0.0011,-0.0023,-0.0023,-0.0038,-0.0023,-0.002,-0.0017,-0.0007,-0.003,-0.0028,-0.0052,-0.0052,-0.0052,0,0,0.0105,0.01,0.0102,0.0095,0.0087,0.009,0.0065,0.0064,0.0068,0.0035,0.0036,0.0017,-0.0003,-0.0005,-0.0007,-0.0015,-0.0017,-0.0016,-0.0013,-0.0005,-0.0029,-0.0027,-0.0024,-0.0051,-0.0051,-0.0051,0,0,0.0126,0.0118,0.0129,0.0126,0.0118,0.0108,0.011,0.0094,0.0088,0.0086,0.0063,0.0052,0.0034,0.0022,0.0013,0.003,0.0001,0.0021,0.0051,0.0029,0.003,0.0032,0.002,0.002,0.0023,0.0023,0.0023,0,0.0135,0.0146,0.0132,0.0141,0.0145,0.0119,0.0135,0.0125,0.011,0.0113,0.0093,0.0069,0.0048,0.0048,0.0051,0.0038,0.0022,0.0037,0.0033,0.0034,0.0035,0.0022,0.0022,0.0025,0.0025,0.0025,0.0025,0,0.0163,0.0171,0.0179,0.0184,0.0187,0.0195,0.0184,0.0184,0.017,0.016,0.0155,0.0122,0.0108,0.0095,0.0077,0.0074,0.0061,0.004,0.0024,0.004,0.0026,0.0024,0.0028,0.0027,0.0027,0.0026,0,0,0.0188,0.0197,0.02,0.0214,0.0212,0.022,0.0231,0.0237,0.025,0.0222,0.0236,0.0201,0.0177,0.0165,0.0134,0.0113,0.01,0.0081,0.0079,0.0072,0.0057,0.0033,0.0029,0.0074,0.0074,0.0074,0.0046,0,0.0215,0.0247,0.0244,0.0276,0.0293,0.0282,0.0296,0.0299,0.0293,0.0298,0.026,0.0255,0.0205,0.0196,0.0167,0.0123,0.0098,0.011,0.004,0.0039,0.0017,0.0027,0.0049,0.0025,0.0045,0.0045,0.0045,0,0.0247,0.0265,0.0304,0.033,0.0337,0.0352,0.038,0.0391,0.039,0.0383,0.0365,0.0332,0.0303,0.0251,0.0179,0.0188,0.0127,0.0084,0.0082,0.0046,0.0012,0.0011,0.0022,0.0042,0.0042,0.0043,0.0043,0,0.0281,0.0309,0.0345,0.0353,0.0376,0.0396,0.0409,0.0421,0.0448,0.0438,0.0456,0.04,0.0388,0.03,0.0205,0.019,0.0126,0.0093,0.0015,0.0013,0.0012,0.001,0.0036,0.0036,0.0036,0.0036,0.0036,0,0.0316,0.0343,0.0364,0.0384,0.0434,0.0436,0.0491,0.0491,0.0517,0.057,0.0503,0.0527,0.0399,0.0345,0.0237,0.013,0.0146,0.0027,0.0004,0.0027,0.0026,0.0024,0.0023,0.0035,0.0036,0.0036,0.0036,0,0.0348,0.0359,0.0402,0.0435,0.0452,0.0489,0.0549,0.0591,0.0601,0.0669,0.067,0.0631,0.0557,0.0425,0.0295,0.0187,0.0073,0.0026,0.0067,0.0048,-0.0032,-0.0031,-0.006,-0.0061,-0.0062,-0.0063,-0.0063,0,0.0366,0.0392,0.0444,0.048,0.0498,0.0555,0.0604,0.063,0.0687,0.0744,0.0787,0.0734,0.071,0.0505,0.0302,0.0109,0.0078,-0.0004,-0.0038,-0.0023,-0.0042,-0.0039,-0.0037,-0.0018,-0.0018,-0.0018,-0.0018,0,0.0403,0.042,0.0458,0.0533,0.0589,0.066,0.0733,0.0791,0.0846,0.0904,0.0964,0.0945,0.0755,0.0558,0.0284,0.0156,0.0024,-0.0016,-0.0003,-0.0002,0.0013,-0.0005,-0.0003,-0.002,-0.002,-0.002,-0.002,-0.0019,0.0432,0.0464,0.0518,0.059,0.0661,0.0759,0.0824,0.0913,0.1014,0.1091,0.1077,0.1042,0.0823,0.0464,0.0243,0.001,0.0018,-0.0073,-0.0071,-0.0068,-0.0064,-0.0052,-0.0095,-0.0096,-0.0096,-0.0096,-0.0096,0,0.0467,0.0507,0.0574,0.0663,0.0749,0.0782,0.0908,0.0973,0.1097,0.1148,0.1171,0.096,0.0744,0.0495,0.0149,-0.0061,-0.0068,-0.0125,-0.0089,-0.0085,-0.0083,-0.0078,-0.0114,-0.0115,-0.0115,-0.0116,0,0,0.0487,0.0551,0.0583,0.0721,0.0791,0.0905,0.0978,0.1072,0.113,0.117,0.1144,0.1072,0.0797,0.0538,0.0266,0.0073,0.004,0.0037,0.0075,0.0154,0.0159,-0.0028,-0.0013,0,0,0,0,0]}],[{"header":{"parameterUnit":"m.s-1","parameterCategory":2,"la1":30.2991,"la2":30.254,"lo1":-89.0895,"lo2":-89.0444,"dy":0.0017,"dx":0.0017,"nx":28,"ny":28,"refTime":"2023-09-20T09:00:00:Z","depth":"4","parameterNumber":2,"parameterNumberName":"U-component_of_CURRENTS"},"data":[0,0,0,0,0,0,0,0,0,0,0,0,0,0,0,0,0,0,0,0,0,0,0,0,0,0,0,0,0,0,0,0,0,0,0,0,0,0,0,0,0,0,0,0,0,0,0,0,0,0,0,0,0,0,0,0,0,0,0.1231,0.1231,0,0.1254,0.1254,0.1254,0.1289,0.129,0.1291,0.1291,0.1343,0.1344,0.1344,0,0,0,0,0,0,0,0,0,0,0,0,0,0.12,0.12,0.1231,0.1231,0.1232,0.1254,0.1254,0.1254,0.1289,0.129,0.1291,0.1292,0.1343,0.1343,0.1344,0,0,0,0,0,0,0,0,0,0,0,0,0,0.1216,0.1201,0.1231,0.1253,0.1255,0.1254,0.1254,0.1254,0.1289,0.129,0.1291,0.1292,0.1342,0.1343,0.1344,0.1328,0,0,0.1347,0.1348,0,0,0,0,0,0,0,0,0.1215,0.1217,0.1249,0.1251,0.1254,0.1271,0.1263,0.1281,0.1289,0.1274,0.1291,0.1293,0.1322,0.1324,0.1324,0.133,0.1333,0.1348,0.1348,0.1349,0.1349,0,0,0,0,0,0,0,0.1214,0.1216,0.1238,0.1249,0.1252,0.1256,0.126,0.1266,0.1291,0.1276,0.1279,0.1283,0.1323,0.1323,0.1325,0.1333,0.1347,0.1348,0.1349,0.1349,0.1413,0.1414,0,0,0,0,0,0,0.1214,0.1215,0.1238,0.1239,0.1239,0.1256,0.126,0.1263,0.129,0.1296,0.1282,0.1285,0.132,0.1324,0.1327,0.1389,0.1349,0.1349,0.135,0.1412,0.1414,0.1415,0,0,0,0,0,0,0.1213,0.1215,0.1237,0.1229,0.1232,0.1256,0.1259,0.1263,0.1292,0.1295,0.1301,0.1311,0.1321,0.1326,0.136,0.1389,0.135,0.1351,0.1411,0.1413,0.1414,0.1462,0,0,0,0,0,0,0.1212,0.1215,0.123,0.1229,0.1233,0.1256,0.1258,0.1263,0.1292,0.1296,0.1321,0.1325,0.1323,0.1359,0.1361,0.1389,0.1352,0.141,0.1412,0.1414,0.1459,0.1465,0.147,0,0,0,0,0,0.1211,0.122,0.123,0.1234,0.1248,0.1257,0.126,0.1278,0.1293,0.1308,0.1328,0.1326,0.1374,0.136,0.1363,0.1392,0.1409,0.1411,0.1414,0.1457,0.1464,0.147,0,0,0,0,0,0,0.1215,0.1225,0.1236,0.1249,0.1263,0.1264,0.1282,0.1293,0.1319,0.1333,0.1337,0.1343,0.1384,0.138,0.1365,0.1417,0.1392,0.1395,0.1424,0.143,0.1436,0.1431,0.1352,0,0,0,0,0,0.1221,0.1235,0.1243,0.1259,0.1267,0.128,0.1292,0.1305,0.1321,0.1335,0.1352,0.1372,0.1389,0.1405,0.1417,0.1443,0.1444,0.1464,0.147,0.1475,0.1472,0.1503,0.1511,0.1423,0.1423,0.1423,0,0,0.1227,0.1236,0.1245,0.1262,0.1274,0.1287,0.1291,0.1316,0.1334,0.1336,0.1376,0.1394,0.1401,0.1434,0.1452,0.1438,0.1502,0.1478,0.1482,0.1477,0.1507,0.1515,0.1523,0.1425,0.1424,0.1424,0,0,0.1235,0.1255,0.1267,0.1279,0.1305,0.1311,0.1326,0.1345,0.1366,0.1398,0.1409,0.1444,0.1469,0.1481,0.1488,0.153,0.1531,0.1543,0.1568,0.1598,0.1606,0.1612,0.1631,0.1639,0.1545,0.1545,0.1545,0,0.1246,0.1258,0.1273,0.1285,0.13,0.1325,0.134,0.1359,0.1391,0.1411,0.1421,0.1475,0.1487,0.1521,0.1541,0.1543,0.1559,0.1542,0.1606,0.1612,0.1618,0.1636,0.1644,0.1548,0.1547,0.1547,0.1547,0,0.1251,0.1273,0.1282,0.1306,0.1324,0.1344,0.1367,0.14,0.1431,0.1449,0.1503,0.1522,0.1554,0.1569,0.157,0.1621,0.1618,0.161,0.1588,0.163,0.1646,0.1654,0.1551,0.155,0.155,0.1549,0,0,0.1242,0.1279,0.1286,0.1301,0.1339,0.1349,0.139,0.1425,0.1456,0.1499,0.1539,0.158,0.1604,0.1613,0.1627,0.1655,0.1716,0.1657,0.1658,0.1675,0.1786,0.1681,0.1679,0.1728,0.1729,0.173,0.1783,0,0.1246,0.127,0.1291,0.1321,0.1333,0.1372,0.1402,0.1442,0.1484,0.153,0.1568,0.1614,0.1616,0.1648,0.1677,0.171,0.1737,0.1702,0.1743,0.1744,0.1645,0.1685,0.1735,0.1788,0.179,0.1791,0.1792,0,0.1237,0.1256,0.1286,0.1325,0.1336,0.1364,0.1422,0.1455,0.1522,0.1558,0.1613,0.1646,0.1706,0.1698,0.177,0.1754,0.1775,0.1791,0.1793,0.168,0.1653,0.1736,0.1805,0.1804,0.1803,0.1803,0.1802,0,0.1206,0.1248,0.1275,0.1289,0.1339,0.1372,0.1409,0.1472,0.1505,0.1591,0.1632,0.1693,0.1748,0.1781,0.1828,0.1811,0.1897,0.1873,0.1793,0.1786,0.1843,0.1836,0.1916,0.1916,0.1915,0.1915,0.1915,0,0.1184,0.1206,0.1269,0.1281,0.1317,0.1363,0.1414,0.1461,0.1533,0.157,0.1652,0.1693,0.1777,0.1834,0.185,0.1848,0.1919,0.1799,0.1793,0.1863,0.1857,0.1849,0.184,0.1917,0.1917,0.1916,0.1916,0,0.1138,0.1182,0.1213,0.1279,0.1303,0.1332,0.1411,0.1437,0.1527,0.1583,0.1617,0.1723,0.1792,0.1854,0.1922,0.1874,0.1882,0.1864,0.1946,0.1943,0.1741,0.1735,0.1761,0.1757,0.1755,0.1752,0.175,0,0.1112,0.1126,0.1202,0.1219,0.1256,0.131,0.1336,0.1425,0.1452,0.158,0.1593,0.1708,0.1764,0.1778,0.1849,0.1868,0.1849,0.1839,0.1769,0.1734,0.1727,0.1724,0.1722,0.1746,0.1745,0.1745,0.1744,0,0.1061,0.1104,0.1129,0.1167,0.1203,0.1231,0.1285,0.1295,0.1391,0.1489,0.1534,0.1578,0.1656,0.1707,0.175,0.1755,0.1832,0.181,0.1814,0.1748,0.1717,0.1711,0.1712,0.1734,0.1736,0.1737,0.1737,0,0.1028,0.1033,0.1074,0.1094,0.1135,0.1135,0.1175,0.1207,0.1251,0.1385,0.1401,0.1524,0.1635,0.165,0.1683,0.1689,0.1651,0.1587,0.1602,0.1613,0.1541,0.1478,0.1419,0,0,0,0,0,0.0984,0.0976,0.099,0.1004,0.1039,0.1064,0.1124,0.1166,0.1263,0.1254,0.1321,0.1382,0.1441,0.1513,0.1488,0.1614,0.1656,0.1577,0.1589,0.1681,0.1692,0.1621,0,0,0,0,0,0,0.0951,0.0967,0.0962,0.0925,0.0917,0.0943,0.0979,0.1045,0.1048,0.116,0.1204,0.1297,0.1381,0.1443,0.1463,0.1482,0.146,0.1655,0.1651,0.1675,0.1685,0.1694,0.1625,0,0,0,0,0]},{"header":{"parameterUnit":"m.s-1","parameterCategory":2,"la1":30.2991,"la2":30.254,"lo1":-89.0895,"lo2":-89.0444,"dy":0.0017,"dx":0.0017,"nx":28,"ny":28,"refTime":"2023-09-20T09:00:00:Z","depth":"4","parameterNumber":3,"parameterNumberName":"V-component_of_CURRENTS"},"data":[0,0,0,0,0,0,0,0,0,0,0,0,0,0,0,0,0,0,0,0,0,0,0,0,0,0,0,0,0,0,0,0,0,0,0,0,0,0,0,0,0,0,0,0,0,0,0,0,0,0,0,0,0,0,0,0,0,0,0.011,0.011,0,0.0098,0.0097,0.0097,0.0079,0.0078,0.0078,0.0078,0.0065,0.0065,0.0065,0,0,0,0,0,0,0,0,0,0,0,0,0,0.0108,0.0108,0.011,0.011,0.011,0.0098,0.0097,0.0097,0.0079,0.0078,0.0078,0.0078,0.0065,0.0065,0.0065,0,0,0,0,0,0,0,0,0,0,0,0,0,0.0104,0.0108,0.011,0.0099,0.0098,0.0098,0.0097,0.0097,0.0079,0.0078,0.0078,0.0077,0.0065,0.0065,0.0065,0.0074,0,0,0.0064,0.0064,0,0,0,0,0,0,0,0,0.0104,0.0104,0.0101,0.01,0.0098,0.0089,0.0092,0.0089,0.0079,0.0086,0.0078,0.0077,0.0073,0.0072,0.0071,0.0074,0.0073,0.0064,0.0064,0.0064,0.0064,0,0,0,0,0,0,0,0.0104,0.0104,0.0105,0.0101,0.0099,0.0091,0.009,0.0091,0.0083,0.0086,0.0084,0.0083,0.0072,0.0071,0.0071,0.0073,0.0064,0.0064,0.0064,0.0064,0.0081,0.0081,0,0,0,0,0,0,0.0107,0.0105,0.0106,0.0105,0.01,0.0092,0.0091,0.0093,0.0083,0.0081,0.0083,0.0082,0.0072,0.0071,0.007,0.0088,0.0064,0.0064,0.0064,0.008,0.0081,0.0081,0,0,0,0,0,0,0.0107,0.0107,0.0106,0.0104,0.0103,0.0092,0.0095,0.0093,0.0092,0.0081,0.0079,0.0085,0.0071,0.007,0.0077,0.0087,0.0064,0.0064,0.008,0.008,0.0081,0.0119,0,0,0,0,0,0,0.0107,0.0107,0.0112,0.0104,0.0103,0.0111,0.0095,0.0093,0.0092,0.0091,0.0082,0.008,0.0071,0.0078,0.0077,0.0086,0.0064,0.0079,0.008,0.0081,0.0117,0.0121,0.0124,0,0,0,0,0,0.0107,0.0116,0.0112,0.0112,0.0109,0.0111,0.011,0.01,0.0093,0.0097,0.0093,0.008,0.0083,0.0078,0.0078,0.0087,0.0079,0.008,0.0081,0.0116,0.012,0.0124,0,0,0,0,0,0,0.0117,0.0115,0.011,0.0118,0.0116,0.0108,0.0112,0.0105,0.0105,0.0104,0.0091,0.0089,0.0097,0.0088,0.0084,0.0094,0.0077,0.0078,0.0104,0.0108,0.0111,0.0118,0.0064,0,0,0,0,0,0.0122,0.0129,0.0123,0.0131,0.0131,0.0122,0.0122,0.0117,0.0114,0.0113,0.0107,0.0102,0.0101,0.0102,0.0099,0.0109,0.0089,0.0113,0.0117,0.012,0.0124,0.0107,0.0109,0.0085,0.0085,0.0085,0,0,0.0128,0.0128,0.0132,0.0134,0.0131,0.0139,0.0121,0.0126,0.0134,0.0113,0.0124,0.0115,0.0107,0.0116,0.0118,0.011,0.0114,0.0121,0.0124,0.0127,0.0108,0.011,0.0112,0.0086,0.0085,0.0085,0,0,0.0145,0.0145,0.0156,0.0157,0.0158,0.0155,0.0158,0.0154,0.0153,0.0163,0.0149,0.0148,0.0148,0.0143,0.014,0.0163,0.0133,0.0159,0.0184,0.0167,0.0169,0.017,0.0137,0.0135,0.0162,0.0162,0.0162,0,0.0152,0.0166,0.0159,0.0171,0.0177,0.0165,0.0179,0.0179,0.0178,0.0184,0.0172,0.0172,0.0162,0.0172,0.0177,0.0171,0.015,0.0169,0.0171,0.0172,0.0173,0.0139,0.0136,0.0164,0.0163,0.0163,0.0163,0,0.0176,0.0187,0.0196,0.0207,0.0213,0.0225,0.0224,0.0231,0.0228,0.0226,0.0235,0.0219,0.0218,0.0213,0.0202,0.0206,0.0184,0.0177,0.0161,0.0178,0.014,0.0137,0.0166,0.0166,0.0165,0.0165,0,0,0.0189,0.0208,0.0212,0.0226,0.0235,0.0245,0.0261,0.0275,0.0291,0.0281,0.0296,0.0288,0.0274,0.027,0.0252,0.0237,0.0217,0.0211,0.021,0.0179,0.0166,0.0139,0.0132,0.021,0.021,0.021,0.0134,0,0.021,0.024,0.0245,0.0278,0.0294,0.0295,0.0315,0.0325,0.0328,0.0339,0.032,0.0326,0.0298,0.0297,0.0277,0.0236,0.0212,0.0238,0.0154,0.0151,0.0126,0.0129,0.021,0.0131,0.013,0.013,0.0129,0,0.0232,0.0251,0.0286,0.032,0.0328,0.0347,0.0379,0.0396,0.0405,0.0406,0.0402,0.0383,0.0362,0.0334,0.0266,0.0283,0.0228,0.019,0.0186,0.0147,0.0119,0.0113,0.0123,0.0123,0.0124,0.0124,0.0125,0,0.0248,0.0282,0.0313,0.0324,0.0357,0.0377,0.0399,0.0419,0.0445,0.0449,0.0458,0.0427,0.0413,0.0348,0.0262,0.0265,0.0177,0.017,0.009,0.0087,0.0116,0.0116,0.0118,0.0118,0.0118,0.0119,0.0119,0,0.0268,0.0295,0.0325,0.0343,0.039,0.0405,0.0456,0.0469,0.0496,0.0528,0.0495,0.0498,0.0417,0.0355,0.0273,0.0167,0.0181,0.0092,0.0069,0.0132,0.0135,0.0113,0.0113,0.0116,0.0116,0.0117,0.0117,0,0.0279,0.0297,0.0338,0.038,0.0399,0.0434,0.0497,0.0532,0.0549,0.0584,0.0586,0.055,0.0465,0.0367,0.0254,0.0183,0.0084,0.004,0.0102,0.0084,-0.0,0.0003,-0.0052,-0.0053,-0.0054,-0.0055,-0.0056,0,0.0285,0.0306,0.0364,0.0395,0.0417,0.0473,0.0515,0.0555,0.0592,0.0613,0.0627,0.0562,0.0517,0.0337,0.023,0.0061,0.0038,-0.0017,0.0003,0.0001,-0.0016,-0.0011,-0.0006,-0.0058,-0.0059,-0.0059,-0.0059,0,0.0298,0.0318,0.0352,0.0414,0.0464,0.0527,0.0586,0.0616,0.0659,0.0672,0.0654,0.0567,0.0466,0.0331,0.0194,0.0078,0.0021,-0.0031,-0.0029,-0.001,-0.0008,-0.0022,-0.0016,-0.0064,-0.0063,-0.0063,-0.0062,0,0.0306,0.0329,0.0373,0.043,0.0496,0.0561,0.0595,0.0633,0.067,0.0686,0.0674,0.0572,0.0519,0.0337,0.0215,0.0093,0.0065,0.0032,0.003,0.0034,0.0081,0.0099,0.0055,0,0,0,0,0,0.0311,0.0338,0.0387,0.0451,0.0518,0.0559,0.0634,0.0662,0.0697,0.0686,0.0684,0.0587,0.0412,0.0342,0.0213,0.0183,0.0038,0.0028,-0.0003,-0.0088,-0.0083,-0.0044,0,0,0,0,0,0,0.0313,0.0356,0.0381,0.046,0.0505,0.0584,0.0633,0.0659,0.0656,0.0667,0.0576,0.0545,0.0373,0.0477,0.0205,0.017,0.0131,-0.0049,-0.0052,-0.0091,-0.0086,-0.0082,-0.004,0,0,0,0,0]}]]